Location: Ravensburg
(47.7866°N, 9.6124°E)
Time: 18:25:24
(UTC+01:00)

NANOSAT C BR1 - Visible Passes

Search period start: 14 March 2026 00:00
Search period end: 24 March 2026 00:00
Orbit: 477 x 484 km, 98.1° (Epoch: 14 March)

Date Brightness Start Highest point End Pass type
(mag) Time Alt. Az. Time Alt. Az. Time Alt. Az.
14 Mar ? 19:27:06 10° SSW 19:30:12 27° W 19:33:19 10° NW visible
15 Mar ? 19:01:03 10° S 19:04:34 56° W 19:08:06 10° NNW visible
17 Mar ? 19:44:14 10° SW 19:46:49 19° W 19:49:26 10° NW visible
18 Mar ? 19:17:41 10° SSW 19:21:01 36° W 19:24:21 10° NNW visible
20 Mar ? 20:01:24 10° WSW 20:03:07 13° W 20:04:51 10° WNW visible
21 Mar ? 19:34:10 10° SSW 19:37:08 25° W 19:40:08 10° NW visible
22 Mar ? 19:07:44 10° S 19:11:12 50° W 19:14:42 10° NNW visible
